Skip Page Navigation
NASA JPL Caltech
NASA Logo - Jet Propulsion Laboratory + View the NASA Portal
+ Near-Earth Object (NEO) Program
Search JPL
JPL Home Earth Solar System Stars & Galaxies Technology
JPL Solar System Dynamics
BODIES ORBITS EPHEMERIDES TOOLS PHYSICAL DATA DISCOVERY FAQ SITE MAP
JPL Small-Body Database Browser
Search: [ help ]  
32856 (1992 SA25)
Classification: Main-belt Asteroid          SPK-ID: 2032856
Ephemeris | Orbit Diagram | Orbital Elements | Physical Parameters | Discovery Circumstances | Close-Approach Data ]

[ show orbit diagram ]
Orbital Elements at Epoch 2456800.5 (2014-May-23.0) TDB
Reference: JPL 11 (heliocentric ecliptic J2000)
 Element Value Uncertainty (1-sigma)   Units 
e .2758102066975324 8.1714e-08  
a 2.611741589582559 2.5346e-08 AU
q 1.891396601919251 2.1999e-07 AU
i 12.84390320073164 9.2461e-06 deg
node 195.6436894668647 2.7408e-05 deg
peri 170.3688368251161 3.0082e-05 deg
M 45.62400451010981 1.186e-05 deg
tp 2456605.117962208264
(2013-Nov-08.61796221)
5.0254e-05 JED
period 1541.678209974726
4.22
2.2442e-05
6.144e-08
d
yr
n .2335117650822228 3.3992e-09 deg/d
Q 3.332086577245866 3.2337e-08 AU
  Orbit Determination Parameters
   # obs. used (total)      688  
   data-arc span      10177 days (27.86 yr)  
   first obs. used      1986-03-15  
   last obs. used      2014-01-24  
   planetary ephem.      DE431  
   SB-pert. ephem.      SB431-BIG16  
   condition code      0  
   fit RMS      .52309  
   data source      ORB  
   producer      Otto Matic  
   solution date      2014-Jun-10 03:13:52  

Additional Information
 Earth MOID = .890378 AU 
 T_jup = 3.320 
[ show covariance matrix ]

Ephemeris | Orbit Diagram | Orbital Elements | Physical Parameters | Discovery Circumstances | Close-Approach Data ]

Physical Parameter Table
Parameter Symbol Value Units Sigma Reference Notes
absolute magnitude H 13.8 mag n/a MPO279857  

32856 (1992 SA25)          Discovered 1992-Sep-30 by Holt, H. E. at Palomar (675)
Reference: 20020128/Numbers.arcLast Updated: 2004-04-19

[ show close-approach data ]
Alternate Designations
 1992 SA25 = 2000 LW11 
Ephemeris | Orbit Diagram | Orbital Elements | Physical Parameters | Discovery Circumstances | Close-Approach Data ]
ABOUT SSD CREDITS/AWARDS PRIVACY/COPYRIGHT GLOSSARY LINKS
FirstGov 2014-Jul-30 00:57 UT
(server date/time)  
NASA Home Page
Site Manager:   Donald K. Yeomans
Webmaster  Alan B. Chamberlin